OBJECT C, 65261

Orbit data source: Space-Track

You're viewing an Uncataloged Satellite

Recently launched and/or uncataloged satellites may have evolving metadata. Metadata may include but not limited to: Owner, Maufacturer, Bus, Motor, and Mission.

OBJECT C, 65261 is a Chinese satellite in SSO that was launched on Tue, 19 Aug 2025 UTC via a LIJIAN-1 launch vehicle from the Jiuquan Satellite Launch Center, China (JSC). Unknown objects in Earth's orbit typically refer to objects detected orbiting the Earth but have not yet been identified or cataloged. These objects could be anything from previously untracked satellites, spent rocket stages, debris from satellite collisions, or even natural meteoroids temporarily captured by Earth's gravity.

Loading next visibility...
Identifier
65261, 2025-180C
Orbit
SSO
Country
Flag of CNCN / PRC
Related business
None
Manufacturer
Unknown
Mission
Operational Defense Technology
Bus & Motor
Unknown
Mass
Unknown
Launch date (UTC)
2025-08-19 (10 months ago)
Launch vehicle
LIJIAN-1
Launch site
Jiuquan Satellite Launch Center, China (JSC)
Object type
Unknown
Shape & HBR
Box, 1.1 m
Radar Cross Section
0.080 m², Large (>1 m²)

Expand to show TLE details & history
Last TLE update: 8 hours ago

TLE from 8 hours ago
0 OBJECT C
1 65261U 25180C   26171.49930192  .00004028  00000-0  21616-3 0  9993
2 65261  97.5250 298.6001 0012706 313.6403  46.3775 15.15454911 46167
Epoch: 2026-06-20T11:58Z
TLE epoch observation values (Epoch: 2026-06-20T11:58:59.685Z)
Latitude
-0.00003°
Longitude
-149.86163°
Altitude
516.637 km
Speed
7.609 km/s
True Right ascension
19h 54m 24s
True Declination
0° 00' 00"
Sunlit
Object was in full shadow at epoch
Visualization orbit readout
Latitude
Unknown
Longitude
Unknown
Altitude
Unknown
Speed
Unknown
Apparent Right ascension
Unknown
Apparent Declination
Unknown
Sunlit
N/A
Visualization observer readout
Local Sidereal Time
07:19:26
Azimuth
Unknown
Elevation
Unknown
Doppler factor
Unknown
Orbital elements
Apogee altitude
525.335 km
Perigee altitude
507.814 km
Semi-major axis
6,894.712 km
Eccentricity
0.00127
Inclination
97.525°
RAAN
298.6001°
Arg. of periapsis
313.6403°
True anomaly
46.48302°
Mean anomaly
46.3775°
Eccentric anomaly
46.43025°
Mean motion
3.79113 °/min
Orbital period
94.96 mins
BSTAR
0.00021616
Loading maneuver chart data...
Computing Atmospheric mass density...
Loading historical data...
Loading historical data...
Loading historical data...
Loading historical data...
Loading historical data...
Loading historical data...
Loading historical data...
Other satellites on launch #180 in the year 2025 (2025-08-19 UTC)

Documentation

Showing up to 5 results
|